SCP
0 0 0 0 0 0 0 0 -0 0 0 -0 -0 0 -0 -0 -0 0 0 0 0 0 0 -0 -0 -0 -0 -0 -0 -0 -0 -0 -0 -0 0 0 0 0 0 0 0 -0 0 0
0 0 0 0 0 -0 0 0 0 0 0 0 -0 0 -0 -0 0 -0 -0 -0 0 0 0 -0 -0 -0 -0 -0 -0 -0 -0 -0 -0 -0 0 0 0 0 0 0 0 0 0 0
0 0 -0 -0 -0 0 0 0 0 -0 -0 -0 -0 0 0 0 0 0 -0 -0 -0 -0 -0 -0 -0 -0 -0 -0 -1 -0 -0 -1 -0 -0 0 0 0 0 0 0 0 0 0 1
0 0 0 0 -0 0 -0 0 0 -0 -0 0 0 0 0 0 0 0 -0 -0 -0 0 -0 -0 -0 -0 -0 -1 -1 -1 -1 -1 -0 -0 0 1 1 1 1 1 1 1 1 1
0 0 0 -0 0 0 0 0 -0 -0 0 0 0 0 -0 0 0 0 -0 0 0 0 0 -0 -1 -1 -0 -0 -1 -1 -1 -0 -0 0 0 1 2 1 1 1 1 1 2 2
-0 0 0 0 -0 0 0 0 -0 0 0 0 -0 0 -0 0 0 0 0 0 0 0 0 0 0 0 0 -0 -1 0 -0 0 1 1 1 1 1 1 1 0 1 2 2 4
0 -0 0 0 0 0 0 0 0 0 0 0 -0 -0 -0 0 -0 0 0 0 0 0 0 0 1 1 1 1 0 -1 -1 1 1 1 2 1 2 2 2 1 1 1 1 3
0 0 -0 0 0 0 -0 0 -0 0 0 0 -0 0 0 -0 0 0 -0 -0 0 0 0 0 0 0 0 1 -0 0 -0 1 3 3 3 3 2 2 2 2 1 1 1 1
-0 0 0 0 0 0 0 -0 -0 0 -0 0 0 0 0 -0 -0 -0 -0 -0 -0 -0 0 -0 0 0 0 -0 -0 0 0 2 4 5 5 6 4 3 3 2 2 2 2 2
0 -0 0 0 0 -0 -0 -0 0 -0 -0 0 0 -0 0 -0 -0 0 0 0 0 0 -0 -0 -0 -0 0 0 -0 2 5 5 10 8 7 8 5 4 3 3 2 2 2 2
-0 0 -0 -0 -0 -0 -0 0 0 0 -0 -0 0 -0 -0 0 0 0 0 0 0 0 0 -0 -0 -0 0 0 0 6 9 8 12 11 12 9 7 5 4 3 2 3 3 2
0 0 -0 -0 0 0 -0 -0 0 0 0 0 0 0 0 -0 -0 -0 0 0 0 0 0 0 0 1 1 0 3 8 9 10 11 13 12 9 8 6 5 4 4 4 3 4
-0 -0 0 -0 0 -0 -0 0 0 0 0 0 -0 0 0 0 0 0 0 0 0 0 0 1 1 1 1 4 8 11 11 12 12 13 11 9 6 5 4 4 4 4 4 4
0 0 0 0 0 -0 0 0 0 0 0 0 0 0 0 0 0 0 0 1 1 1 0 0 1 1 2 5 8 9 7 7 6 5 6 5 3 4 4 4 4 5 6 7
0 0 0 0 0 0 0 0 0 0 0 0 0 0 0 0 0 0 0 0 0 0 0 0 0 0 2 5 8 3 2 0 1 0 4 3 4 3 3 4 5 7 9 9
-0 -0 0 0 0 0 0 0 0 0 0 0 0 0 0 0 0 0 0 0 0 0 0 0 1 1 0 0 1 2 1 0 0 0 -0 0 3 7 7 6 8 9 8 7
0 0 0 0 0 0 0 0 0 0 0 0 0 0 0 0 0 0 0 0 0 0 0 1 1 1 1 1 -0 -0 -0 0 0 0 -0 0 2 6 5 8 9 7 6 5
0 0 0 0 0 0 -0 0 0 0 0 0 0 0 0 0 0 0 0 0 0 0 1 1 1 1 0 -0 -0 0 0 -0 1 1 1 4 2 4 5 5 5 5 5 2
-0 0 0 0 0 0 0 0 0 0 0 0 0 0 0 0 0 0 0 0 0 1 1 1 1 1 1 1 -0 0 1 0 0 1 1 2 3 3 4 4 4 3 2 0
-0 0 0 0 0 0 -0 0 0 0 0 0 0 0 0 0 0 0 0 0 1 2 1 1 1 1 1 0 0 -0 -1 -0 0 1 1 1 1 2 2 2 2 2 1 0
-0 0 -0 0 0 0 0 0 0 0 0 0 0 0 0 0 0 0 1 1 1 1 1 0 0 0 0 0 0 0 0 0 0 0 0 0 1 1 1 1 1 2 1 0
-0 0 0 0 0 0 0 0 0 0 0 0 0 0 0 0 0 0 1 1 1 0 0 0 0 0 0 0 0 0 0 0 0 0 0 0 0 1 1 1 1 1 1 0
0 0 0 0 0 0 0 0 0 0 0 0 0 0 0 0 0 0 1 1 0 0 0 0 0 0 0 0 1 1 1 0 1 1 0 0 0 0 1 1 0 0 1 0
0 0 0 0 0 0 0 0 0 0 0 0 0 0 0 0 0 1 1 0 0 0 0 1 0 0 0 0 1 1 1 1 1 0 0 0 0 0 0 1 1 1 0 0
0 0 0 0 0 0 0 0 0 0 0 0 0 0 0 0 0 0 0 1 0 0 1 1 1 1 1 1 1 1 0 0 0 0 0 0 0 0 0 1 1 0 0 0
0 0 0 0 0 0 0 0 0 0 0 0 0 0 0 0 0 0 0 0 1 1 1 1 2 1 1 1 0 0 -0 1 0 0 0 0 0 0 1 0 0 0 0 0
Wind_Speed_500mb
14 10 10 21 8 26 14 22 36 30 26 27 30 18 20 35 33 42 55 47 46 43 41 44 41 36 44 44 46 43 41 43 43 40 35 31 29 28 27 29 34 40 44 45
7 15 23 21 27 31 31 9 10 10 17 7 34 12 31 29 30 53 59 57 52 47 48 51 43 42 48 48 43 45 44 48 51 46 37 35 25 23 20 20 25 29 40 47
19 21 34 27 32 8 8 6 2 12 9 29 20 26 19 20 32 51 64 64 60 56 59 61 54 58 53 55 51 48 43 44 50 48 45 41 35 35 34 38 42 41 43 52
23 18 10 22 30 15 6 12 8 21 14 5 7 5 7 11 10 15 22 62 67 60 61 69 66 66 66 61 58 56 51 48 45 47 51 52 50 53 51 52 46 44 51 54
15 8 3 18 15 21 12 12 24 20 6 9 8 10 15 11 11 16 25 54 60 64 63 78 73 72 70 66 66 65 60 55 52 51 52 49 52 50 44 38 36 41 44 51
20 29 11 12 12 9 15 13 19 10 8 3 20 12 8 8 13 14 27 40 44 54 69 63 76 71 69 63 64 67 68 60 56 56 55 54 49 46 51 53 56 54 50 45
13 13 15 29 19 17 4 10 4 3 5 11 23 4 17 17 14 12 29 47 50 55 61 59 78 79 67 65 71 72 73 71 61 57 56 51 46 44 45 46 48 51 54 58
5 13 7 12 7 2 12 11 9 7 1 4 24 10 8 13 18 14 5 20 35 36 58 52 57 26 40 40 35 71 75 77 71 67 57 49 45 43 38 35 31 31 33 34
1 11 14 6 9 2 13 6 13 5 16 10 8 5 11 11 10 15 5 24 13 49 47 40 33 57 82 75 64 65 89 76 73 68 57 46 43 40 34 32 33 25 25 29
10 14 17 8 12 18 7 10 15 10 4 8 5 9 11 10 14 11 4 27 36 35 44 38 26 18 50 55 48 70 72 76 68 57 52 47 40 36 35 35 29 25 28 33
10 11 17 6 1 10 10 12 10 5 10 10 9 12 11 12 15 12 19 30 32 30 28 27 29 16 21 47 55 49 68 63 56 54 55 45 36 31 30 30 28 28 28 32
23 7 4 12 7 9 6 8 8 10 16 2 8 6 12 3 14 38 47 43 39 34 27 26 14 13 25 18 42 53 55 49 48 47 41 37 34 30 27 29 31 31 33 30
14 6 7 24 15 16 4 6 8 5 4 4 8 3 25 23 39 40 46 47 34 40 42 35 28 33 41 10 48 58 49 39 35 36 36 36 34 29 28 29 33 38 42 44
4 6 7 6 13 5 10 15 10 4 5 7 2 12 16 20 21 34 54 54 52 54 53 48 54 63 32 16 45 43 31 16 26 24 27 32 35 31 29 32 40 48 53 56
5 4 10 8 12 11 8 13 17 11 9 6 9 23 12 14 16 33 44 41 48 51 56 58 62 58 52 15 32 18 31 2 39 42 63 40 46 37 34 44 53 57 67 66
10 6 9 3 18 17 14 16 19 15 12 18 30 19 15 34 36 40 42 43 45 47 47 52 50 49 51 28 24 34 42 59 15 87 59 62 50 45 49 52 60 66 68 62
2 7 6 6 12 13 13 12 7 14 17 26 18 11 15 16 23 31 36 39 39 35 36 41 45 48 46 44 45 34 25 24 31 34 56 47 51 56 51 78 66 65 64 57
5 8 8 6 11 5 14 14 14 39 27 21 18 15 22 24 26 38 40 33 31 33 27 27 38 43 43 38 30 28 28 21 25 27 34 21 37 46 44 55 64 65 66 63
37 4 4 8 0 13 23 18 13 10 18 18 18 18 36 39 29 20 49 40 34 37 37 35 36 42 42 41 40 35 33 39 40 31 35 34 40 46 51 56 57 60 69 73
30 22 15 12 11 7 38 19 19 14 8 23 34 24 28 28 9 9 23 26 30 30 38 41 41 41 49 54 55 59 60 59 54 51 53 57 62 66 69 74 77 75 69 67
10 9 10 6 7 11 16 17 14 1 6 27 31 28 23 6 8 17 21 24 25 28 35 41 46 48 52 58 63 62 59 59 58 64 69 68 67 69 70 73 71 69 67 63
7 7 4 14 10 3 3 10 10 12 27 25 23 23 22 25 21 21 23 24 25 29 37 44 48 50 55 66 67 68 68 68 67 64 68 73 76 76 77 78 76 77 71 61
4 7 6 5 2 26 46 44 35 28 23 19 19 22 23 29 32 30 26 22 26 33 41 41 45 53 60 57 60 68 68 66 62 62 65 77 80 78 79 78 77 74 61 57
2 5 7 10 11 27 44 37 29 20 16 18 18 23 25 31 37 35 29 27 32 38 42 42 48 55 54 58 62 67 72 65 59 61 71 77 79 82 79 75 73 66 59 54
5 7 2 12 12 39 35 29 19 14 10 13 18 22 26 37 38 38 36 33 41 42 48 44 49 43 57 64 64 73 62 54 59 69 69 78 80 75 74 69 73 61 51 43
11 4 6 4 16 15 16 21 13 12 7 12 16 18 20 27 36 46 45 45 54 46 53 48 56 50 67 70 58 57 48 51 65 66 75 72 69 68 72 71 64 51 38 35
Wind_Direction_500mb
348 10 235 264 222 228 231 211 233 236 169 157 189 183 205 213 204 183 166 174 184 190 195 193 196 195 205 196 203 208 210 211 220 227 227 226 223 219 224 220 225 223 237 250
282 252 250 248 291 261 253 307 351 98 168 153 175 118 209 205 178 173 168 177 185 189 192 191 190 198 205 205 213 216 216 210 217 227 232 236 239 241 249 250 245 238 236 250
267 254 313 303 289 299 241 228 282 206 59 64 99 179 168 200 182 183 175 183 185 189 191 192 189 197 204 216 223 224 225 222 224 231 236 241 243 245 244 248 254 255 254 251
239 268 258 272 252 270 48 239 350 148 71 145 73 138 279 201 119 156 195 185 188 193 197 198 198 198 202 214 226 232 236 236 239 235 233 236 234 232 235 238 241 247 253 257
254 282 347 168 244 243 230 248 124 105 92 82 28 89 259 148 190 197 217 180 194 195 193 198 205 210 207 206 218 228 234 241 244 243 242 242 242 243 245 244 248 254 260 262
270 292 248 254 289 219 268 279 81 57 127 80 188 157 264 217 196 205 191 196 200 195 201 204 210 211 212 210 215 225 230 230 238 242 243 240 240 241 240 241 242 246 251 257
323 283 291 278 281 276 151 320 126 255 336 227 153 137 231 205 195 208 188 205 191 202 205 209 208 200 208 212 220 223 229 232 230 231 238 243 249 250 246 246 248 248 249 253
19 327 193 214 220 299 286 189 177 246 277 271 135 157 249 187 197 229 229 271 221 220 216 213 112 149 207 217 267 231 225 230 230 230 229 236 241 239 232 234 241 250 256 260
47 270 276 37 337 162 289 352 249 271 119 70 224 339 20 172 192 236 215 27 30 69 70 80 177 197 213 211 227 224 229 227 227 227 224 220 222 221 221 225 232 250 265 269
274 292 305 316 224 265 225 261 351 347 46 83 34 168 203 187 212 151 150 68 61 48 60 59 85 154 197 231 231 226 229 223 217 219 221 210 210 221 231 236 245 261 264 266
222 214 300 4 310 99 354 346 1 102 93 120 178 276 228 157 167 112 87 82 64 43 34 44 31 24 308 280 237 231 215 210 209 215 210 209 211 220 230 240 255 267 274 274
204 149 241 256 79 50 271 53 62 96 318 310 112 274 78 212 53 70 69 61 50 38 26 355 349 340 345 338 216 203 206 216 223 218 218 219 214 218 235 255 268 273 275 283
204 199 117 313 352 329 330 127 130 11 71 334 113 253 47 35 66 54 46 32 38 47 34 29 2 8 344 235 201 205 210 217 218 220 223 233 237 232 238 257 273 278 279 281
113 274 113 164 211 206 323 356 5 134 111 275 131 103 35 46 52 36 34 52 41 32 23 14 17 14 355 258 194 198 210 230 248 267 267 262 256 264 267 270 274 278 279 280
174 217 293 11 346 330 339 347 349 3 305 146 73 92 84 68 53 30 33 47 35 21 11 3 3 0 7 232 178 186 200 44 345 282 272 265 269 271 273 274 273 272 270 277
216 268 18 357 4 20 358 328 303 267 45 92 91 84 92 62 47 55 48 40 25 10 357 360 3 0 25 9 269 269 279 290 292 285 253 255 267 266 275 274 270 271 275 284
75 117 84 308 308 333 330 336 33 74 53 112 93 126 79 53 44 62 46 33 15 2 353 357 30 34 48 43 42 45 31 332 289 266 237 242 257 270 289 277 276 270 277 283
316 136 140 205 29 348 259 355 60 69 47 73 94 84 78 56 26 57 32 21 360 357 28 15 27 31 39 45 32 20 19 357 311 299 308 285 281 284 286 276 278 281 282 284
23 25 80 100 179 262 11 14 30 76 40 36 56 41 44 24 10 6 0 7 54 37 25 16 11 16 15 7 1 353 343 337 331 326 322 317 305 302 299 298 299 297 292 294
51 59 66 33 88 75 291 347 37 13 36 34 51 38 23 19 32 284 37 32 30 24 17 7 355 346 341 341 338 333 334 330 324 319 316 311 308 306 305 304 302 304 301 300
30 29 85 255 184 228 240 7 328 290 199 51 40 19 357 34 330 14 32 26 16 10 356 345 341 335 330 326 327 327 325 326 324 320 316 315 318 319 317 314 311 308 303 294
122 114 209 219 188 247 61 59 99 145 67 48 21 3 17 351 353 24 21 17 3 346 332 327 329 325 321 322 323 324 324 323 322 322 320 321 322 323 324 318 309 308 301 289
1 141 196 112 131 94 89 98 87 77 61 26 -0 4 5 17 10 1 355 355 344 335 327 323 316 312 317 322 317 316 320 329 324 318 319 319 323 320 324 322 317 315 298 288
309 112 111 93 1 90 90 83 78 66 46 13 21 6 7 358 349 348 345 330 327 325 318 314 309 314 317 318 315 307 310 318 312 312 320 320 321 321 321 322 321 314 302 287
240 33 93 100 53 87 62 52 51 58 28 17 0 350 355 339 320 322 333 334 328 320 317 307 306 307 309 319 315 314 310 314 313 319 322 322 321 321 321 325 321 316 306 294
33 349 83 115 87 65 37 12 21 1 29 7 348 359 342 342 335 333 333 325 324 326 328 323 318 320 325 316 323 319 329 313 322 327 325 328 330 325 326 325 321 313 309 299
Wind_Speed_850mb
14 10 10 21 8 26 14 22 36 30 26 27 30 18 20 35 33 42 55 47 46 43 41 44 41 36 44 44 46 43 41 43 43 40 35 31 29 28 27 29 34 40 44 45
7 15 23 21 27 31 31 9 10 10 17 7 34 12 31 29 30 53 59 57 52 47 48 51 43 42 48 48 43 45 44 48 51 46 37 35 25 23 20 20 25 29 40 47
19 21 34 27 32 8 8 6 2 12 9 29 20 26 19 20 32 51 64 64 60 56 59 61 54 58 53 55 51 48 43 44 50 48 45 41 35 35 34 38 42 41 43 52
23 18 10 22 30 15 6 12 8 21 14 5 7 5 7 11 10 15 22 62 67 60 61 69 66 66 66 61 58 56 51 48 45 47 51 52 50 53 51 52 46 44 51 54
15 8 3 18 15 21 12 12 24 20 6 9 8 10 15 11 11 16 25 54 60 64 63 78 73 72 70 66 66 65 60 55 52 51 52 49 52 50 44 38 36 41 44 51
20 29 11 12 12 9 15 13 19 10 8 3 20 12 8 8 13 14 27 40 44 54 69 63 76 71 69 63 64 67 68 60 56 56 55 54 49 46 51 53 56 54 50 45
13 13 15 29 19 17 4 10 4 3 5 11 23 4 17 17 14 12 29 47 50 55 61 59 78 79 67 65 71 72 73 71 61 57 56 51 46 44 45 46 48 51 54 58
5 13 7 12 7 2 12 11 9 7 1 4 24 10 8 13 18 14 5 20 35 36 58 52 57 26 40 40 35 71 75 77 71 67 57 49 45 43 38 35 31 31 33 34
1 11 14 6 9 2 13 6 13 5 16 10 8 5 11 11 10 15 5 24 13 49 47 40 33 57 82 75 64 65 89 76 73 68 57 46 43 40 34 32 33 25 25 29
10 14 17 8 12 18 7 10 15 10 4 8 5 9 11 10 14 11 4 27 36 35 44 38 26 18 50 55 48 70 72 76 68 57 52 47 40 36 35 35 29 25 28 33
10 11 17 6 1 10 10 12 10 5 10 10 9 12 11 12 15 12 19 30 32 30 28 27 29 16 21 47 55 49 68 63 56 54 55 45 36 31 30 30 28 28 28 32
23 7 4 12 7 9 6 8 8 10 16 2 8 6 12 3 14 38 47 43 39 34 27 26 14 13 25 18 42 53 55 49 48 47 41 37 34 30 27 29 31 31 33 30
14 6 7 24 15 16 4 6 8 5 4 4 8 3 25 23 39 40 46 47 34 40 42 35 28 33 41 10 48 58 49 39 35 36 36 36 34 29 28 29 33 38 42 44
4 6 7 6 13 5 10 15 10 4 5 7 2 12 16 20 21 34 54 54 52 54 53 48 54 63 32 16 45 43 31 16 26 24 27 32 35 31 29 32 40 48 53 56
5 4 10 8 12 11 8 13 17 11 9 6 9 23 12 14 16 33 44 41 48 51 56 58 62 58 52 15 32 18 31 2 39 42 63 40 46 37 34 44 53 57 67 66
10 6 9 3 18 17 14 16 19 15 12 18 30 19 15 34 36 40 42 43 45 47 47 52 50 49 51 28 24 34 42 59 15 87 59 62 50 45 49 52 60 66 68 62
2 7 6 6 12 13 13 12 7 14 17 26 18 11 15 16 23 31 36 39 39 35 36 41 45 48 46 44 45 34 25 24 31 34 56 47 51 56 51 78 66 65 64 57
5 8 8 6 11 5 14 14 14 39 27 21 18 15 22 24 26 38 40 33 31 33 27 27 38 43 43 38 30 28 28 21 25 27 34 21 37 46 44 55 64 65 66 63
37 4 4 8 0 13 23 18 13 10 18 18 18 18 36 39 29 20 49 40 34 37 37 35 36 42 42 41 40 35 33 39 40 31 35 34 40 46 51 56 57 60 69 73
30 22 15 12 11 7 38 19 19 14 8 23 34 24 28 28 9 9 23 26 30 30 38 41 41 41 49 54 55 59 60 59 54 51 53 57 62 66 69 74 77 75 69 67
10 9 10 6 7 11 16 17 14 1 6 27 31 28 23 6 8 17 21 24 25 28 35 41 46 48 52 58 63 62 59 59 58 64 69 68 67 69 70 73 71 69 67 63
7 7 4 14 10 3 3 10 10 12 27 25 23 23 22 25 21 21 23 24 25 29 37 44 48 50 55 66 67 68 68 68 67 64 68 73 76 76 77 78 76 77 71 61
4 7 6 5 2 26 46 44 35 28 23 19 19 22 23 29 32 30 26 22 26 33 41 41 45 53 60 57 60 68 68 66 62 62 65 77 80 78 79 78 77 74 61 57
2 5 7 10 11 27 44 37 29 20 16 18 18 23 25 31 37 35 29 27 32 38 42 42 48 55 54 58 62 67 72 65 59 61 71 77 79 82 79 75 73 66 59 54
5 7 2 12 12 39 35 29 19 14 10 13 18 22 26 37 38 38 36 33 41 42 48 44 49 43 57 64 64 73 62 54 59 69 69 78 80 75 74 69 73 61 51 43
11 4 6 4 16 15 16 21 13 12 7 12 16 18 20 27 36 46 45 45 54 46 53 48 56 50 67 70 58 57 48 51 65 66 75 72 69 68 72 71 64 51 38 35
Wind_Direction_850mb
348 10 235 264 222 228 231 211 233 236 169 157 189 183 205 213 204 183 166 174 184 190 195 193 196 195 205 196 203 208 210 211 220 227 227 226 223 219 224 220 225 223 237 250
282 252 250 248 291 261 253 307 351 98 168 153 175 118 209 205 178 173 168 177 185 189 192 191 190 198 205 205 213 216 216 210 217 227 232 236 239 241 249 250 245 238 236 250
267 254 313 303 289 299 241 228 282 206 59 64 99 179 168 200 182 183 175 183 185 189 191 192 189 197 204 216 223 224 225 222 224 231 236 241 243 245 244 248 254 255 254 251
239 268 258 272 252 270 48 239 350 148 71 145 73 138 279 201 119 156 195 185 188 193 197 198 198 198 202 214 226 232 236 236 239 235 233 236 234 232 235 238 241 247 253 257
254 282 347 168 244 243 230 248 124 105 92 82 28 89 259 148 190 197 217 180 194 195 193 198 205 210 207 206 218 228 234 241 244 243 242 242 242 243 245 244 248 254 260 262
270 292 248 254 289 219 268 279 81 57 127 80 188 157 264 217 196 205 191 196 200 195 201 204 210 211 212 210 215 225 230 230 238 242 243 240 240 241 240 241 242 246 251 257
323 283 291 278 281 276 151 320 126 255 336 227 153 137 231 205 195 208 188 205 191 202 205 209 208 200 208 212 220 223 229 232 230 231 238 243 249 250 246 246 248 248 249 253
19 327 193 214 220 299 286 189 177 246 277 271 135 157 249 187 197 229 229 271 221 220 216 213 112 149 207 217 267 231 225 230 230 230 229 236 241 239 232 234 241 250 256 260
47 270 276 37 337 162 289 352 249 271 119 70 224 339 20 172 192 236 215 27 30 69 70 80 177 197 213 211 227 224 229 227 227 227 224 220 222 221 221 225 232 250 265 269
274 292 305 316 224 265 225 261 351 347 46 83 34 168 203 187 212 151 150 68 61 48 60 59 85 154 197 231 231 226 229 223 217 219 221 210 210 221 231 236 245 261 264 266
222 214 300 4 310 99 354 346 1 102 93 120 178 276 228 157 167 112 87 82 64 43 34 44 31 24 308 280 237 231 215 210 209 215 210 209 211 220 230 240 255 267 274 274
204 149 241 256 79 50 271 53 62 96 318 310 112 274 78 212 53 70 69 61 50 38 26 355 349 340 345 338 216 203 206 216 223 218 218 219 214 218 235 255 268 273 275 283
204 199 117 313 352 329 330 127 130 11 71 334 113 253 47 35 66 54 46 32 38 47 34 29 2 8 344 235 201 205 210 217 218 220 223 233 237 232 238 257 273 278 279 281
113 274 113 164 211 206 323 356 5 134 111 275 131 103 35 46 52 36 34 52 41 32 23 14 17 14 355 258 194 198 210 230 248 267 267 262 256 264 267 270 274 278 279 280
174 217 293 11 346 330 339 347 349 3 305 146 73 92 84 68 53 30 33 47 35 21 11 3 3 0 7 232 178 186 200 44 345 282 272 265 269 271 273 274 273 272 270 277
216 268 18 357 4 20 358 328 303 267 45 92 91 84 92 62 47 55 48 40 25 10 357 360 3 0 25 9 269 269 279 290 292 285 253 255 267 266 275 274 270 271 275 284
75 117 84 308 308 333 330 336 33 74 53 112 93 126 79 53 44 62 46 33 15 2 353 357 30 34 48 43 42 45 31 332 289 266 237 242 257 270 289 277 276 270 277 283
316 136 140 205 29 348 259 355 60 69 47 73 94 84 78 56 26 57 32 21 360 357 28 15 27 31 39 45 32 20 19 357 311 299 308 285 281 284 286 276 278 281 282 284
23 25 80 100 179 262 11 14 30 76 40 36 56 41 44 24 10 6 0 7 54 37 25 16 11 16 15 7 1 353 343 337 331 326 322 317 305 302 299 298 299 297 292 294
51 59 66 33 88 75 291 347 37 13 36 34 51 38 23 19 32 284 37 32 30 24 17 7 355 346 341 341 338 333 334 330 324 319 316 311 308 306 305 304 302 304 301 300
30 29 85 255 184 228 240 7 328 290 199 51 40 19 357 34 330 14 32 26 16 10 356 345 341 335 330 326 327 327 325 326 324 320 316 315 318 319 317 314 311 308 303 294
122 114 209 219 188 247 61 59 99 145 67 48 21 3 17 351 353 24 21 17 3 346 332 327 329 325 321 322 323 324 324 323 322 322 320 321 322 323 324 318 309 308 301 289
1 141 196 112 131 94 89 98 87 77 61 26 -0 4 5 17 10 1 355 355 344 335 327 323 316 312 317 322 317 316 320 329 324 318 319 319 323 320 324 322 317 315 298 288
309 112 111 93 1 90 90 83 78 66 46 13 21 6 7 358 349 348 345 330 327 325 318 314 309 314 317 318 315 307 310 318 312 312 320 320 321 321 321 322 321 314 302 287
240 33 93 100 53 87 62 52 51 58 28 17 0 350 355 339 320 322 333 334 328 320 317 307 306 307 309 319 315 314 310 314 313 319 322 322 321 321 321 325 321 316 306 294
33 349 83 115 87 65 37 12 21 1 29 7 348 359 342 342 335 333 333 325 324 326 328 323 318 320 325 316 323 319 329 313 322 327 325 328 330 325 326 325 321 313 309 299